Regional Weather Roundup
Issued by NWS Bismarck, ND

Home | Current Version | Previous Version | Text Only | Print | Product List | Glossary On
Versions: 1 2 3 4 5 6 7 8 9 10 11 12 13 14 15 16 17 18 19 20 21 22 23 24 25 26 27 28 29 30 31 32 33 34 35 36 37 38 39 40 41 42 43 44 45 46 47 48 49 50
000
ASUS43 KBIS 190159
RWRBIS

NWR BROADCAST TEXT
NATIONAL WEATHER SERVICE BISMARCK ND
900 PM CDT FRI APR 18 2014

NOTE: "FAIR" INDICATES FEW OR NO CLOUDS BELOW 12,000 FEET WITH NO
SIGNIFICANT WEATHER AND/OR OBSTRUCTIONS TO VISIBILITY.


CITY           SKY/WX    TMP DP  RH WIND       PRES   REMARKS
WILLISTON      CLOUDY    45  43  93 W6        29.65F
MINOT          CLOUDY    46  33  60 E22G28    29.72F
MINOT AFB      NOT AVBL
BISMARCK       CLOUDY    50  39  66 E18       29.61F
DICKINSON      LGT RAIN  50  41  71 NW25G35   29.64R
GARRISON         N/A     46  36  68 E20       29.67F
HETTINGER ARPT CLOUDY    53  40  61 NW17G30   29.64R
JAMESTOWN      NOT AVBL
CARRINGTON     FAIR      43  36  75 SE35G45   29.76F
CROSBY         FAIR      43  43 100 SE23      29.62F
HARVEY         FAIR      43  36  75 SE25G36   29.72F
HAZEN          CLOUDY    50  37  62 E9        29.66S
LINTON         FAIR      63  41  45 SE23G33   29.57F
OAKES          FAIR      46  37  71 E28G36    29.81F
RUGBY          FAIR      43  32  65 SE28G39   29.75F
WATFORD CITY   LGT RAIN  45  45 100 NE6       29.65F
$$

CITY           SKY/WX    TMP DP  RH WIND       PRES   REMARKS
GRAND FORKS    CLOUDY    46  28  49 SE26G40   29.96F
GRAND FORKS AF NOT AVBL
DEVILS LAKE    CLOUDY    43  27  52 SE24G35   29.82F
FARGO          CLOUDY    44  28  53 SE29G39   29.95F
CANDO          MOCLDY    41  30  65 SE25G31   29.83F
CAVALIER       MOCLDY    45  32  61 SE13G23   29.97F
GRAFTON        FAIR      45  32  61 SE16      29.97F
GWINNER        CLEAR     46  36  66 SE28G37   29.88F
LANGDON        MOCLDY    39  32  75 SE28G37   29.88F
WALHALLA       MIX PCPN  43  32  65 SE25G36   29.96S
$$

CITY           SKY/WX    TMP DP  RH WIND       PRES   REMARKS
ABERDEEN       MOCLDY    56  38  50 SE20G26   29.76F
MOBRIDGE       CLOUDY    64  39  39 S24       29.54S
RAPID CITY     CLOUDY    68  35  29 NW13      29.62R
GLASGOW        MOCLDY    43  37  79 NW13      29.72S
SIDNEY         MOCLDY    45  43  93 W3        29.68R
WOLF POINT     LGT RAIN  45  40  82 W24G36    29.69R
GLENDIVE       PTCLDY    46  41  81 W7        29.69R
MILES CITY     LGT RAIN  53  41  63 W16G25    29.74R
BAKER          CLOUDY    48  42  80 CALM      29.68R
$$

CITY           SKY/WX    TMP DP  RH WIND       PRES   REMARKS
BILLINGS       MOCLDY    49  23  36 NW21      29.81R
GREAT FALLS    MOCLDY    44  17  33 W22G31    29.79R
$$




USA.gov is the U.S. government's official web portal to all federal, state and local government web resources and services.